Time,TemperatureF,DewpointF,PressureIn,WindDirection,WindDirectionDegrees,WindSpeedMPH,WindSpeedGustMPH,Humidity,HourlyPrecipIn,Conditions,Clouds,dailyrainin,SoftwareType,DateUTC
2013-01-05 00:05:00,46.0,36.4,30.06,West,270,0.0,-999.0,69,-99.99,,,0.00,Acu-Link.com,2013-01-05 06:05:00,
2013-01-05 00:21:00,46.0,36.8,30.06,West,270,0.0,-999.0,70,-99.99,,,0.00,Acu-Link.com,2013-01-05 06:21:00,
2013-01-05 00:36:00,45.7,36.8,30.05,West,270,1.7,-999.0,71,-99.99,,,0.00,Acu-Link.com,2013-01-05 06:36:00,
2013-01-05 00:51:00,45.5,37.0,30.05,West,270,0.0,-999.0,72,-99.99,,,0.00,Acu-Link.com,2013-01-05 06:51:00,
2013-01-05 01:07:00,45.0,37.9,30.06,West,270,0.0,-999.0,76,-99.99,,,0.00,Acu-Link.com,2013-01-05 07:07:00,
2013-01-05 01:22:00,44.8,38.0,30.05,West,270,0.0,-999.0,77,-99.99,,,0.00,Acu-Link.com,2013-01-05 07:22:00,
2013-01-05 01:37:00,44.6,37.8,30.05,West,270,0.0,-999.0,77,-99.99,,,0.00,Acu-Link.com,2013-01-05 07:37:00,
2013-01-05 01:53:00,44.4,38.0,30.05,West,270,0.0,-999.0,78,-99.99,,,0.00,Acu-Link.com,2013-01-05 07:53:00,
2013-01-05 02:08:00,44.2,37.5,30.05,West,270,0.0,-999.0,77,-99.99,,,0.00,Acu-Link.com,2013-01-05 08:08:00,
2013-01-05 02:23:00,44.1,37.7,30.05,West,270,0.0,-999.0,78,-99.99,,,0.00,Acu-Link.com,2013-01-05 08:23:00,
2013-01-05 02:38:00,44.1,37.7,30.05,West,270,0.0,-999.0,78,-99.99,,,0.00,Acu-Link.com,2013-01-05 08:38:00,
2013-01-05 02:54:00,43.9,37.5,30.05,West,270,0.0,-999.0,78,-99.99,,,0.00,Acu-Link.com,2013-01-05 08:54:00,
2013-01-05 03:09:00,43.9,37.8,30.05,West,270,0.0,-999.0,79,-99.99,,,0.00,Acu-Link.com,2013-01-05 09:09:00,
2013-01-05 03:24:00,43.9,37.8,30.04,West,270,0.0,-999.0,79,-99.99,,,0.00,Acu-Link.com,2013-01-05 09:24:00,
2013-01-05 03:39:00,43.9,38.1,30.03,West,270,0.0,-999.0,80,-99.99,,,0.00,Acu-Link.com,2013-01-05 09:39:00,
2013-01-05 03:55:00,43.7,37.9,30.03,West,270,0.0,-999.0,80,-99.99,,,0.00,Acu-Link.com,2013-01-05 09:55:00,
2013-01-05 04:10:00,43.5,37.7,30.02,West,270,0.0,-999.0,80,-99.99,,,0.00,Acu-Link.com,2013-01-05 10:10:00,
2013-01-05 04:25:00,43.0,37.6,30.02,West,270,0.0,-999.0,81,-99.99,,,0.00,Acu-Link.com,2013-01-05 10:25:00,
2013-01-05 04:41:00,42.3,37.2,30.02,West,270,0.0,-999.0,82,-99.99,,,0.00,Acu-Link.com,2013-01-05 10:41:00,
2013-01-05 04:56:00,41.9,36.8,30.01,West,270,0.0,-999.0,82,-99.99,,,0.00,Acu-Link.com,2013-01-05 10:56:00,
2013-01-05 05:11:00,41.2,36.7,30.02,West,270,0.0,-999.0,84,-99.99,,,0.00,Acu-Link.com,2013-01-05 11:11:00,
2013-01-05 05:27:00,40.8,36.6,30.02,West,270,0.0,-999.0,85,-99.99,,,0.00,Acu-Link.com,2013-01-05 11:27:00,
2013-01-05 05:42:00,40.6,36.7,30.03,West,270,0.0,-999.0,86,-99.99,,,0.00,Acu-Link.com,2013-01-05 11:42:00,
2013-01-05 05:57:00,40.5,36.6,30.02,West,270,0.0,-999.0,86,-99.99,,,0.00,Acu-Link.com,2013-01-05 11:57:00,
2013-01-05 06:13:00,40.3,36.7,30.02,West,270,0.0,-999.0,87,-99.99,,,0.00,Acu-Link.com,2013-01-05 12:13:00,
2013-01-05 06:28:00,40.3,37.0,30.02,West,270,0.0,-999.0,88,-99.99,,,0.00,Acu-Link.com,2013-01-05 12:28:00,
2013-01-05 06:43:00,40.5,37.2,30.03,West,270,0.0,-999.0,88,-99.99,,,0.00,Acu-Link.com,2013-01-05 12:43:00,
2013-01-05 06:58:00,40.6,37.3,30.03,West,270,0.0,-999.0,88,-99.99,,,0.00,Acu-Link.com,2013-01-05 12:58:00,
2013-01-05 07:14:00,40.6,37.3,30.03,West,270,0.0,-999.0,88,-99.99,,,0.00,Acu-Link.com,2013-01-05 13:14:00,
2013-01-05 07:29:00,40.8,37.2,30.03,West,270,0.0,-999.0,87,-99.99,,,0.00,Acu-Link.com,2013-01-05 13:29:00,
2013-01-05 07:44:00,40.8,37.2,30.03,West,270,0.0,-999.0,87,-99.99,,,0.00,Acu-Link.com,2013-01-05 13:44:00,
2013-01-05 08:00:00,41.0,37.4,30.04,West,270,0.0,-999.0,87,-99.99,,,0.00,Acu-Link.com,2013-01-05 14:00:00,
2013-01-05 08:15:00,41.0,37.1,30.05,West,270,0.0,-999.0,86,-99.99,,,0.00,Acu-Link.com,2013-01-05 14:15:00,
2013-01-05 08:30:00,41.4,37.5,30.04,West,270,0.0,-999.0,86,-99.99,,,0.00,Acu-Link.com,2013-01-05 14:30:00,
2013-01-05 08:46:00,41.5,37.3,30.04,West,270,0.0,-999.0,85,-99.99,,,0.00,Acu-Link.com,2013-01-05 14:46:00,
2013-01-05 09:01:00,41.9,37.4,30.04,West,270,0.0,-999.0,84,-99.99,,,0.00,Acu-Link.com,2013-01-05 15:01:00,
2013-01-05 09:16:00,41.9,37.1,30.04,West,270,0.0,-999.0,83,-99.99,,,0.00,Acu-Link.com,2013-01-05 15:16:00,
2013-01-05 09:32:00,42.6,37.8,30.04,West,270,0.0,-999.0,83,-99.99,,,0.00,Acu-Link.com,2013-01-05 15:32:00,
2013-01-05 09:47:00,42.8,37.7,30.03,West,270,0.0,-999.0,82,-99.99,,,0.00,Acu-Link.com,2013-01-05 15:47:00,
2013-01-05 10:02:00,43.2,37.5,30.03,West,270,0.0,-999.0,80,-99.99,,,0.00,Acu-Link.com,2013-01-05 16:02:00,
2013-01-05 10:18:00,43.9,37.8,30.03,West,270,0.0,-999.0,79,-99.99,,,0.00,Acu-Link.com,2013-01-05 16:18:00,
2013-01-05 10:33:00,44.8,37.7,30.03,West,270,0.0,-999.0,76,-99.99,,,0.00,Acu-Link.com,2013-01-05 16:33:00,
2013-01-05 10:48:00,45.7,38.2,30.02,West,270,0.0,-999.0,75,-99.99,,,0.00,Acu-Link.com,2013-01-05 16:48:00,
2013-01-05 11:03:00,46.2,38.0,30.02,West,270,0.0,-999.0,73,-99.99,,,0.00,Acu-Link.com,2013-01-05 17:03:00,
2013-01-05 11:19:00,46.9,38.0,30.01,West,270,0.0,-999.0,71,-99.99,,,0.00,Acu-Link.com,2013-01-05 17:19:00,
2013-01-05 11:34:00,47.7,38.4,30.01,West,270,0.0,-999.0,70,-99.99,,,0.00,Acu-Link.com,2013-01-05 17:34:00,
2013-01-05 11:49:00,49.3,38.4,30.00,West,270,0.0,-999.0,66,-99.99,,,0.00,Acu-Link.com,2013-01-05 17:49:00,
2013-01-05 12:05:00,49.6,37.9,29.99,West,270,0.0,-999.0,64,-99.99,,,0.00,Acu-Link.com,2013-01-05 18:05:00,
2013-01-05 12:20:00,50.2,38.5,29.96,West,270,0.0,-999.0,64,-99.99,,,0.00,Acu-Link.com,2013-01-05 18:20:00,
2013-01-05 12:35:00,50.9,38.8,29.95,West,270,0.0,-999.0,63,-99.99,,,0.00,Acu-Link.com,2013-01-05 18:35:00,
2013-01-05 12:51:00,51.6,38.2,29.94,West,270,0.0,-999.0,60,-99.99,,,0.00,Acu-Link.com,2013-01-05 18:51:00,
2013-01-05 13:06:00,52.5,38.6,29.93,West,270,0.0,-999.0,59,-99.99,,,0.00,Acu-Link.com,2013-01-05 19:06:00,
2013-01-05 13:21:00,53.1,38.7,29.92,West,270,0.0,-999.0,58,-99.99,,,0.00,Acu-Link.com,2013-01-05 19:21:00,
2013-01-05 13:37:00,53.8,38.5,29.91,West,270,0.0,-999.0,56,-99.99,,,0.00,Acu-Link.com,2013-01-05 19:37:00,
2013-01-05 13:52:00,54.5,38.7,29.90,West,270,0.0,-999.0,55,-99.99,,,0.00,Acu-Link.com,2013-01-05 19:52:00,
2013-01-05 14:07:00,55.0,38.7,29.89,West,270,1.1,-999.0,54,-99.99,,,0.00,Acu-Link.com,2013-01-05 20:07:00,
2013-01-05 14:23:00,56.3,38.9,29.89,West,270,0.0,-999.0,52,-99.99,,,0.00,Acu-Link.com,2013-01-05 20:23:00,
2013-01-05 14:38:00,58.3,39.7,29.89,West,270,0.0,-999.0,50,-99.99,,,0.00,Acu-Link.com,2013-01-05 20:38:00,
2013-01-05 14:53:00,62.4,40.8,29.88,West,270,1.7,-999.0,45,-99.99,,,0.00,Acu-Link.com,2013-01-05 20:53:00,
2013-01-05 15:08:00,65.5,40.5,29.88,West,270,0.0,-999.0,40,-99.99,,,0.00,Acu-Link.com,2013-01-05 21:08:00,
2013-01-05 15:24:00,64.2,39.4,29.87,West,270,0.0,-999.0,40,-99.99,,,0.00,Acu-Link.com,2013-01-05 21:24:00,
2013-01-05 15:39:00,63.3,39.8,29.87,West,270,0.0,-999.0,42,-99.99,,,0.00,Acu-Link.com,2013-01-05 21:39:00,
2013-01-05 15:54:00,62.8,40.0,29.88,West,270,0.0,-999.0,43,-99.99,,,0.00,Acu-Link.com,2013-01-05 21:54:00,
2013-01-05 16:10:00,63.0,39.5,29.88,West,270,0.0,-999.0,42,-99.99,,,0.00,Acu-Link.com,2013-01-05 22:10:00,
2013-01-05 16:25:00,61.3,38.6,29.88,West,270,0.0,-999.0,43,-99.99,,,0.00,Acu-Link.com,2013-01-05 22:25:00,
2013-01-05 16:40:00,60.1,38.7,29.89,West,270,0.0,-999.0,45,-99.99,,,0.00,Acu-Link.com,2013-01-05 22:40:00,
2013-01-05 16:56:00,58.5,38.3,29.88,West,270,0.0,-999.0,47,-99.99,,,0.00,Acu-Link.com,2013-01-05 22:56:00,
2013-01-05 17:11:00,56.8,39.9,29.89,West,270,0.0,-999.0,53,-99.99,,,0.00,Acu-Link.com,2013-01-05 23:11:00,
2013-01-05 17:26:00,55.4,39.5,29.90,West,270,0.0,-999.0,55,-99.99,,,0.00,Acu-Link.com,2013-01-05 23:26:00,
2013-01-05 17:42:00,53.8,39.4,29.90,West,270,0.0,-999.0,58,-99.99,,,0.00,Acu-Link.com,2013-01-05 23:42:00,
2013-01-05 17:57:00,52.7,39.2,29.91,West,270,0.0,-999.0,60,-99.99,,,0.00,Acu-Link.com,2013-01-05 23:57:00,
2013-01-05 18:12:00,51.6,39.0,29.91,West,270,0.0,-999.0,62,-99.99,,,0.00,Acu-Link.com,2013-01-06 00:12:00,
2013-01-05 18:28:00,50.9,38.8,29.92,West,270,0.0,-999.0,63,-99.99,,,0.00,Acu-Link.com,2013-01-06 00:28:00,
2013-01-05 18:43:00,50.2,38.9,29.92,West,270,0.0,-999.0,65,-99.99,,,0.00,Acu-Link.com,2013-01-06 00:43:00,
2013-01-05 18:58:00,49.5,38.6,29.93,West,270,0.0,-999.0,66,-99.99,,,0.00,Acu-Link.com,2013-01-06 00:58:00,
2013-01-05 19:13:00,49.1,38.6,29.93,West,270,0.0,-999.0,67,-99.99,,,0.00,Acu-Link.com,2013-01-06 01:13:00,
2013-01-05 19:29:00,48.6,38.5,29.93,West,270,0.0,-999.0,68,-99.99,,,0.00,Acu-Link.com,2013-01-06 01:29:00,
2013-01-05 19:44:00,48.0,38.0,29.94,West,270,0.0,-999.0,68,-99.99,,,0.00,Acu-Link.com,2013-01-06 01:44:00,
2013-01-05 19:59:00,47.7,38.0,29.94,West,270,0.0,-999.0,69,-99.99,,,0.00,Acu-Link.com,2013-01-06 01:59:00,
2013-01-05 20:15:00,47.1,37.8,29.94,West,270,0.0,-999.0,70,-99.99,,,0.00,Acu-Link.com,2013-01-06 02:15:00,
2013-01-05 20:30:00,46.8,37.5,29.94,West,270,0.0,-999.0,70,-99.99,,,0.00,Acu-Link.com,2013-01-06 02:30:00,
2013-01-05 20:45:00,45.9,37.4,29.94,West,270,0.0,-999.0,72,-99.99,,,0.00,Acu-Link.com,2013-01-06 02:45:00,
2013-01-05 21:01:00,45.0,37.2,29.94,West,270,0.0,-999.0,74,-99.99,,,0.00,Acu-Link.com,2013-01-06 03:01:00,
2013-01-05 21:16:00,44.2,36.8,29.95,West,270,0.0,-999.0,75,-99.99,,,0.00,Acu-Link.com,2013-01-06 03:16:00,
2013-01-05 21:31:00,43.5,36.4,29.95,West,270,0.0,-999.0,76,-99.99,,,0.00,Acu-Link.com,2013-01-06 03:31:00,
2013-01-05 21:47:00,42.8,36.4,29.96,West,270,0.0,-999.0,78,-99.99,,,0.00,Acu-Link.com,2013-01-06 03:47:00,
2013-01-05 22:02:00,42.1,36.1,29.96,West,270,0.0,-999.0,79,-99.99,,,0.00,Acu-Link.com,2013-01-06 04:02:00,
2013-01-05 22:17:00,41.5,36.1,29.97,West,270,0.0,-999.0,81,-99.99,,,0.00,Acu-Link.com,2013-01-06 04:17:00,
2013-01-05 22:33:00,40.8,35.4,29.97,West,270,0.0,-999.0,81,-99.99,,,0.00,Acu-Link.com,2013-01-06 04:33:00,
2013-01-05 22:48:00,40.5,35.8,29.97,West,270,0.0,-999.0,83,-99.99,,,0.00,Acu-Link.com,2013-01-06 04:48:00,
2013-01-05 23:03:00,40.1,35.1,29.98,West,270,0.0,-999.0,82,-99.99,,,0.00,Acu-Link.com,2013-01-06 05:03:00,
2013-01-05 23:18:00,39.7,35.0,29.98,West,270,0.0,-999.0,83,-99.99,,,0.00,Acu-Link.com,2013-01-06 05:18:00,
2013-01-05 23:34:00,39.4,34.7,29.99,West,270,0.0,-999.0,83,-99.99,,,0.00,Acu-Link.com,2013-01-06 05:34:00,
2013-01-05 23:49:00,39.2,34.5,29.99,West,270,0.0,-999.0,83,-99.99,,,0.00,Acu-Link.com,2013-01-06 05:49:00,